Location: Risskov
(56.1972°N, 10.2480°E)
Time: 00:24:01
(UTC+00:00)

Cosmos 1331 Rocket - Pass Details

Date: 05 July 2020
Orbit: 749 x 778 km, 74.0° (Epoch: 03 August)

Event Time Altitude Azimuth Distance (km) Brightness Sun altitude
Rises 23:10:06 0° 331° (NNW) 3,272 8.5 -11.1°
Reaches altitude 10° 23:12:31 10° 334° (NNW) 2,342 7.7 -11.1°
Maximum altitude 23:17:49 67° 58° (ENE) 849 4.4 -11.1°
Drops below altitude 10° 23:23:06 10° 141° (SE) 2,329 6.0 -11.1°
Enters shadow 23:23:37 - 142° (SE) 2,523 6.2 -11.1°
